Вернуться в каталог

STARLINK-31621

АктивенСвязьVLEO
NORAD 59465·PAYLOAD·🇺🇸 United States

Запущен Apr 10, 2024 с Cape Canaveral Space Force Station

Loading…

Ближайшие Пролёты (ближайшие 24 часа)

TLE

СвежийSource: CelesTrak SupGP

Эпоха: Sep 14, 2026, 20:37 UTC

1 59465C 24068L   26257.85951389  .00040367  00000+0  14624-2 0  2574
2 59465  43.0044  46.3130 0001432 276.9116  41.6656 15.27552440    19

Отслеживайте STARLINK-31621 в реальном времени с AllMySat

Download on the App Store